Time,TemperatureF,DewpointF,PressureIn,WindDirection,WindDirectionDegrees,WindSpeedMPH,WindSpeedGustMPH,Humidity,HourlyPrecipIn,Conditions,Clouds,dailyrainin,SolarRadiationWatts/m^2,SoftwareType,DateUTC
2013-07-18 00:01:00,64.0,54.0,-100.00,SSW,210,7.0,13.0,69,0.00,,,0.48,0.000000,,2013-07-18 06:01:00,
2013-07-18 01:32:00,62.0,52.0,-100.00,WNW,293,3.0,16.0,70,-99.99,,,0.48,0.000000,,2013-07-18 07:32:00,
2013-07-18 01:42:00,62.0,52.0,-100.00,WNW,293,3.0,16.0,70,-99.99,,,0.48,0.000000,,2013-07-18 07:42:00,
2013-07-18 01:52:00,62.0,52.0,-100.00,WNW,293,3.0,16.0,70,-99.99,,,0.48,0.000000,,2013-07-18 07:52:00,
2013-07-18 02:01:00,62.0,52.0,-100.00,WNW,293,3.0,16.0,70,-99.99,,,0.48,0.000000,,2013-07-18 08:01:00,
2013-07-18 04:22:00,58.0,50.0,-100.00,WSW,251,2.0,8.0,76,-99.99,,,0.42,0.000000,,2013-07-18 10:22:00,
2013-07-18 04:32:00,58.0,50.0,-100.00,WSW,251,2.0,8.0,76,-99.99,,,0.42,0.000000,,2013-07-18 10:32:00,
2013-07-18 04:43:00,58.0,50.0,-100.00,WSW,251,2.0,8.0,76,-99.99,,,0.42,0.000000,,2013-07-18 10:43:00,
2013-07-18 04:52:00,58.0,50.0,-100.00,WSW,251,2.0,8.0,76,-99.99,,,0.42,0.000000,,2013-07-18 10:52:00,
2013-07-18 05:01:00,58.0,50.0,-100.00,WSW,251,2.0,8.0,76,-99.99,,,0.42,0.000000,,2013-07-18 11:01:00,
2013-07-18 05:22:00,58.0,52.0,-100.00,SW,236,3.0,7.0,81,0.00,,,0.42,0.000000,,2013-07-18 11:22:00,
2013-07-18 05:32:00,58.0,52.0,-100.00,SW,236,3.0,7.0,81,0.00,,,0.42,0.000000,,2013-07-18 11:32:00,
2013-07-18 05:43:00,58.0,52.0,-100.00,SW,236,3.0,7.0,81,0.00,,,0.42,0.000000,,2013-07-18 11:43:00,
2013-07-18 05:52:00,58.0,52.0,-100.00,SW,236,3.0,7.0,81,0.00,,,0.42,0.000000,,2013-07-18 11:52:00,
2013-07-18 06:01:00,58.0,52.0,-100.00,SW,236,3.0,7.0,81,0.00,,,0.42,0.000000,,2013-07-18 12:01:00,
2013-07-18 06:33:00,57.0,53.0,-100.00,SSW,209,6.0,8.0,85,0.00,,,0.42,1.000000,,2013-07-18 12:33:00,
2013-07-18 06:42:00,57.0,53.0,-100.00,SSW,209,6.0,8.0,85,0.00,,,0.42,1.000000,,2013-07-18 12:42:00,
2013-07-18 06:52:00,57.0,53.0,-100.00,SSW,209,6.0,8.0,85,0.00,,,0.42,1.000000,,2013-07-18 12:52:00,
2013-07-18 07:01:00,57.0,53.0,-100.00,SSW,209,6.0,8.0,85,0.00,,,0.42,1.000000,,2013-07-18 13:01:00,
2013-07-18 07:53:00,61.0,52.0,-100.00,SSE,155,0.0,10.0,73,0.00,,,0.42,62.000000,,2013-07-18 13:53:00,
2013-07-18 08:02:00,61.0,52.0,-100.00,SSE,155,0.0,10.0,73,0.00,,,0.42,62.000000,,2013-07-18 14:02:00,
2013-07-18 09:43:00,68.0,56.0,-100.00,NNE,30,4.0,5.0,65,0.00,,,0.42,430.000000,,2013-07-18 15:43:00,
2013-07-18 09:53:00,68.0,56.0,-100.00,NNE,30,4.0,5.0,65,0.00,,,0.42,430.000000,,2013-07-18 15:53:00,
2013-07-18 10:01:00,68.0,56.0,-100.00,NNE,30,4.0,5.0,65,0.00,,,0.42,430.000000,,2013-07-18 16:01:00,
2013-07-18 10:32:00,74.0,58.0,-100.00,NE,54,3.0,7.0,57,0.00,,,0.42,586.000000,,2013-07-18 16:32:00,
2013-07-18 10:42:00,74.0,58.0,-100.00,NE,54,3.0,7.0,57,0.00,,,0.42,586.000000,,2013-07-18 16:42:00,
2013-07-18 10:52:00,74.0,58.0,-100.00,NE,54,3.0,7.0,57,0.00,,,0.42,586.000000,,2013-07-18 16:52:00,
2013-07-18 11:02:00,74.0,58.0,-100.00,NE,54,3.0,7.0,57,0.00,,,0.42,586.000000,,2013-07-18 17:02:00,
2013-07-18 11:33:00,76.0,55.0,-100.00,East,82,5.0,6.0,48,0.00,,,0.42,855.000000,,2013-07-18 17:33:00,
2013-07-18 11:43:00,76.0,55.0,-100.00,East,82,5.0,6.0,48,0.00,,,0.42,855.000000,,2013-07-18 17:43:00,
2013-07-18 11:52:00,76.0,55.0,-100.00,East,82,5.0,6.0,48,0.00,,,0.42,855.000000,,2013-07-18 17:52:00,
2013-07-18 12:01:00,76.0,55.0,-100.00,East,82,5.0,6.0,48,0.00,,,0.42,855.000000,,2013-07-18 18:01:00,
2013-07-18 12:32:00,77.0,48.0,-100.00,ENE,78,6.0,10.0,36,0.00,,,0.42,1006.000000,,2013-07-18 18:32:00,
2013-07-18 12:43:00,77.0,48.0,-100.00,ENE,78,6.0,10.0,36,0.00,,,0.42,1006.000000,,2013-07-18 18:43:00,
2013-07-18 12:52:00,77.0,48.0,-100.00,ENE,78,6.0,10.0,36,0.00,,,0.42,1006.000000,,2013-07-18 18:52:00,
2013-07-18 13:01:00,77.0,48.0,-100.00,ENE,78,6.0,10.0,36,0.00,,,0.42,1006.000000,,2013-07-18 19:01:00,
2013-07-18 13:32:00,80.0,48.0,-100.00,ENE,58,6.0,11.0,33,0.00,,,0.42,1092.000000,,2013-07-18 19:32:00,
2013-07-18 13:43:00,80.0,48.0,-100.00,ENE,58,6.0,11.0,33,0.00,,,0.42,1092.000000,,2013-07-18 19:43:00,
2013-07-18 13:53:00,80.0,48.0,-100.00,ENE,58,6.0,11.0,33,0.00,,,0.42,1092.000000,,2013-07-18 19:53:00,
2013-07-18 14:01:00,80.0,48.0,-100.00,ENE,58,6.0,11.0,33,0.00,,,0.42,1092.000000,,2013-07-18 20:01:00,
2013-07-18 14:32:00,82.0,46.0,-100.00,South,189,4.0,14.0,28,0.00,,,0.42,1126.000000,,2013-07-18 20:32:00,
2013-07-18 14:43:00,82.0,46.0,-100.00,South,189,4.0,14.0,28,0.00,,,0.42,1126.000000,,2013-07-18 20:43:00,
2013-07-18 14:52:00,82.0,46.0,-100.00,South,189,4.0,14.0,28,0.00,,,0.42,1126.000000,,2013-07-18 20:52:00,
2013-07-18 15:01:00,82.0,46.0,-100.00,South,189,4.0,14.0,28,0.00,,,0.42,1126.000000,,2013-07-18 21:01:00,
2013-07-18 15:32:00,82.0,44.0,-100.00,ENE,77,8.0,11.0,26,0.00,,,0.42,1109.000000,,2013-07-18 21:32:00,
2013-07-18 15:43:00,82.0,44.0,-100.00,ENE,77,8.0,11.0,26,0.00,,,0.42,1109.000000,,2013-07-18 21:43:00,
2013-07-18 15:52:00,82.0,44.0,-100.00,ENE,77,8.0,11.0,26,0.00,,,0.42,1109.000000,,2013-07-18 21:52:00,
2013-07-18 16:01:00,82.0,44.0,-100.00,ENE,77,8.0,11.0,26,0.00,,,0.42,1109.000000,,2013-07-18 22:01:00,
2013-07-18 16:32:00,84.0,42.0,-100.00,ENE,57,6.0,16.0,23,0.00,,,0.42,1034.000000,,2013-07-18 22:32:00,
2013-07-18 16:43:00,84.0,42.0,-100.00,ENE,57,6.0,16.0,23,0.00,,,0.42,1034.000000,,2013-07-18 22:43:00,
2013-07-18 16:53:00,84.0,42.0,-100.00,ENE,57,6.0,16.0,23,0.00,,,0.42,1034.000000,,2013-07-18 22:53:00,
2013-07-18 17:01:00,84.0,42.0,-100.00,ENE,57,6.0,16.0,23,0.00,,,0.42,1034.000000,,2013-07-18 23:01:00,
2013-07-18 17:32:00,85.0,38.0,-100.00,East,84,9.0,17.0,19,0.00,,,0.42,906.000000,,2013-07-18 23:32:00,
2013-07-18 17:42:00,85.0,38.0,-100.00,East,84,9.0,17.0,19,0.00,,,0.42,906.000000,,2013-07-18 23:42:00,
2013-07-18 17:52:00,85.0,38.0,-100.00,East,84,9.0,17.0,19,0.00,,,0.42,906.000000,,2013-07-18 23:52:00,
2013-07-18 18:01:00,85.0,38.0,-100.00,East,84,9.0,17.0,19,0.00,,,0.42,906.000000,,2013-07-19 00:01:00,
2013-07-18 18:32:00,88.0,38.0,-100.00,SSE,152,5.0,14.0,17,0.00,,,0.42,576.000000,,2013-07-19 00:32:00,
2013-07-18 18:43:00,88.0,38.0,-100.00,SSE,152,5.0,14.0,17,0.00,,,0.42,576.000000,,2013-07-19 00:43:00,
2013-07-18 18:52:00,88.0,38.0,-100.00,SSE,152,5.0,14.0,17,0.00,,,0.42,576.000000,,2013-07-19 00:52:00,
2013-07-18 19:01:00,88.0,38.0,-100.00,SSE,152,5.0,14.0,17,0.00,,,0.42,576.000000,,2013-07-19 01:01:00,
2013-07-18 19:32:00,86.0,35.0,-100.00,North,0,15.0,16.0,16,0.00,,,0.38,288.000000,,2013-07-19 01:32:00,
2013-07-18 19:42:00,86.0,35.0,-100.00,North,0,15.0,16.0,16,0.00,,,0.38,288.000000,,2013-07-19 01:42:00,
2013-07-18 19:52:00,86.0,35.0,-100.00,North,0,15.0,16.0,16,0.00,,,0.38,288.000000,,2013-07-19 01:52:00,
2013-07-18 20:01:00,86.0,35.0,-100.00,North,0,15.0,16.0,16,0.00,,,0.38,288.000000,,2013-07-19 02:01:00,
2013-07-18 20:32:00,84.0,36.0,-100.00,NNW,334,10.0,23.0,18,0.00,,,0.00,315.000000,,2013-07-19 02:32:00,
2013-07-18 20:42:00,84.0,36.0,-100.00,NNW,334,10.0,23.0,18,0.00,,,0.00,315.000000,,2013-07-19 02:42:00,
2013-07-18 20:52:00,84.0,36.0,-100.00,NNW,334,10.0,23.0,18,0.00,,,0.00,315.000000,,2013-07-19 02:52:00,
2013-07-18 21:01:00,84.0,36.0,-100.00,NNW,334,10.0,23.0,18,0.00,,,0.00,315.000000,,2013-07-19 03:01:00,
2013-07-18 21:32:00,78.0,35.0,-100.00,WNW,289,5.0,21.0,21,0.00,,,0.00,83.000000,,2013-07-19 03:32:00,
2013-07-18 21:43:00,78.0,35.0,-100.00,WNW,289,5.0,21.0,21,0.00,,,0.00,83.000000,,2013-07-19 03:43:00,
2013-07-18 21:52:00,78.0,35.0,-100.00,WNW,289,5.0,21.0,21,0.00,,,0.00,83.000000,,2013-07-19 03:52:00,
2013-07-18 22:02:00,78.0,35.0,-100.00,WNW,289,5.0,21.0,21,0.00,,,0.00,83.000000,,2013-07-19 04:02:00,
2013-07-18 22:33:00,76.0,37.0,-100.00,WSW,244,4.0,11.0,24,0.00,,,0.00,2.000000,,2013-07-19 04:33:00,
2013-07-18 22:44:00,76.0,37.0,-100.00,WSW,244,4.0,11.0,24,0.00,,,0.00,2.000000,,2013-07-19 04:44:00,
2013-07-18 22:52:00,76.0,37.0,-100.00,WSW,244,4.0,11.0,24,0.00,,,0.00,2.000000,,2013-07-19 04:52:00,
2013-07-18 23:02:00,76.0,37.0,-100.00,WSW,244,4.0,11.0,24,0.00,,,0.00,2.000000,,2013-07-19 05:02:00,
2013-07-18 23:32:00,70.0,36.0,-100.00,SW,224,8.0,11.0,29,-99.99,,,0.00,0.000000,,2013-07-19 05:32:00,
2013-07-18 23:43:00,70.0,36.0,-100.00,SW,224,8.0,11.0,29,-99.99,,,0.00,0.000000,,2013-07-19 05:43:00,
2013-07-18 23:53:00,70.0,36.0,-100.00,SW,224,8.0,11.0,29,-99.99,,,0.00,0.000000,,2013-07-19 05:53:00,